Location: Caltech
(34.1382°N, 118.1253°W)
Time: 23:46:49
(UTC-07:00)

Uosat F - Visible Passes

Search period start: 06 July 2015 00:00
Search period end: 16 July 2015 00:00
Orbit: 752 x 761 km, 98.7° (Epoch: 06 July)

Date Brightness Start Highest point End Pass type
(mag) Time Alt. Az. Time Alt. Az. Time Alt. Az.
07 Jul 13.2 05:09:18 10° NE 05:13:29 27° E 05:17:44 10° SSE visible
10 Jul 13.7 04:51:01 10° NE 04:54:04 17° E 04:57:21 10° SE visible
12 Jul 13.2 05:10:13 10° NE 05:14:23 27° E 05:18:39 10° SSE visible
15 Jul 13.7 04:51:54 10° NE 04:54:58 17° E 04:58:15 10° SE visible
